EVA191 RJTT-RCSS

Flight info

Callsign EVA191
Flight time N/A
Altitude 40000
Route LAXAS Y56 TOHME Y54 TURFY Y24 KOSHI Y50 IGMON A1 APU APU1E
Aircraft B78X/H-SDE1E2E3FGHIJ2J3J4J5M1RWXY/LB1D1

Departure

Time 2026-05-04 14:15
Airport Tokyo Haneda International Airport (RJTT)

Arrival

Time N/A
Airport Taipei Songshan International Airport (RCSS)
Time Latitude Longitude Altitude Speed Heading
2026-05-04 13:45 35.54584 139.77021 29 ft 0 kts 240°
2026-05-04 13:58 35.54606 139.77065 28 ft 3 kts 240°
2026-05-04 13:58 35.54616 139.77088 27 ft 4 kts 255°
2026-05-04 13:59 35.54620 139.77113 27 ft 4 kts 291°
2026-05-04 13:59 35.54609 139.77136 28 ft 4 kts 324°
2026-05-04 13:59 35.54590 139.77151 28 ft 1 kts 330°
2026-05-04 14:03 35.54596 139.77147 28 ft 3 kts 331°
2026-05-04 14:03 35.54616 139.77133 28 ft 4 kts 330°
2026-05-04 14:03 35.54655 139.77106 28 ft 8 kts 331°
2026-05-04 14:03 35.54705 139.77097 28 ft 7 kts 11°
2026-05-04 14:04 35.54706 139.77097 28 ft 0 kts 12°
2026-05-04 14:04 35.54740 139.77122 29 ft 9 kts 45°
2026-05-04 14:05 35.54836 139.77334 28 ft 15 kts 83°
2026-05-04 14:05 35.54793 139.77396 29 ft 9 kts 154°
2026-05-04 14:05 35.54698 139.77453 29 ft 21 kts 153°
2026-05-04 14:06 35.54543 139.77558 27 ft 27 kts 150°
2026-05-04 14:06 35.54383 139.77670 28 ft 26 kts 150°
2026-05-04 14:06 35.54225 139.77785 28 ft 27 kts 149°
2026-05-04 14:06 35.54070 139.77894 27 ft 25 kts 150°
2026-05-04 14:07 35.54019 139.78011 26 ft 13 kts 75°
2026-05-04 14:07 35.54070 139.78099 29 ft 16 kts 52°
2026-05-04 14:07 35.54133 139.78220 28 ft 16 kts 59°
2026-05-04 14:07 35.54207 139.78377 28 ft 26 kts 60°
2026-05-04 14:08 35.54309 139.78589 34 ft 28 kts 59°
2026-05-04 14:08 35.54401 139.78784 39 ft 25 kts 59°
2026-05-04 14:08 35.54484 139.78957 45 ft 22 kts 59°
2026-05-04 14:08 35.54565 139.79125 41 ft 24 kts 58°
2026-05-04 14:09 35.54737 139.79486 32 ft 6 kts 60°
2026-05-04 14:09 35.54746 139.79506 32 ft 5 kts 60°
2026-05-04 14:10 35.54774 139.79571 31 ft 3 kts 62°
2026-05-04 14:10 35.54780 139.79584 31 ft 3 kts 61°
2026-05-04 14:10 35.54795 139.79641 31 ft 9 kts 88°
2026-05-04 14:10 35.54775 139.79682 31 ft 7 kts 133°
2026-05-04 14:11 35.54752 139.79703 30 ft 10 kts 146°
2026-05-04 14:11 35.54646 139.79779 30 ft 15 kts 149°
2026-05-04 14:11 35.54537 139.79860 29 ft 22 kts 148°
2026-05-04 14:12 35.54381 139.79968 28 ft 29 kts 150°
2026-05-04 14:12 35.54227 139.80076 27 ft 27 kts 151°
2026-05-04 14:12 35.53931 139.80289 30 ft 13 kts 142°
2026-05-04 14:13 35.53916 139.80348 34 ft 5 kts 85°
2026-05-04 14:13 35.53923 139.80381 35 ft 7 kts 71°
2026-05-04 14:13 35.53936 139.80410 37 ft 9 kts 60°
2026-05-04 14:14 35.53979 139.80480 39 ft 11 kts 46°
2026-05-04 14:14 35.54153 139.80384 36 ft 45 kts 330°
2026-05-04 14:14 35.54624 139.80047 35 ft 111 kts 330°
2026-05-04 14:15 35.56421 139.78705 603 ft 159 kts 324°
2026-05-04 14:15 35.58382 139.77204 1539 ft 180 kts 342°
2026-05-04 14:16 35.60230 139.78846 3287 ft 218 kts 74°
2026-05-04 14:16 35.60151 139.80817 3933 ft 244 kts 97°
2026-05-04 14:17 35.58361 139.84482 5672 ft 239 kts 123°
2026-05-04 14:17 35.57550 139.86022 7038 ft 225 kts 117°
2026-05-04 14:17 35.55024 139.87946 8901 ft 237 kts 182°
2026-05-04 14:18 35.53207 139.87822 9052 ft 286 kts 192°
2026-05-04 14:18 35.50757 139.87498 10569 ft 293 kts 192°
2026-05-04 14:19 35.47148 139.85484 13183 ft 293 kts 220°
2026-05-04 14:19 35.45487 139.83940 14160 ft 306 kts 221°
2026-05-04 14:19 35.43781 139.82275 14918 ft 321 kts 223°
2026-05-04 14:19 35.41985 139.80500 15580 ft 340 kts 223°
2026-05-04 14:20 35.40117 139.78669 16408 ft 348 kts 222°
2026-05-04 14:20 35.38204 139.76820 17391 ft 351 kts 223°
2026-05-04 14:20 35.36504 139.74710 18302 ft 348 kts 233°
2026-05-04 14:21 35.33490 139.70043 20076 ft 352 kts 234°
2026-05-04 14:21 35.31967 139.67722 20915 ft 355 kts 233°
2026-05-04 14:21 35.30403 139.65374 21718 ft 357 kts 233°
2026-05-04 14:21 35.28837 139.63006 22476 ft 359 kts 233°
2026-05-04 14:22 35.27268 139.60617 23197 ft 361 kts 233°
2026-05-04 14:22 35.25688 139.58221 23879 ft 363 kts 233°
2026-05-04 14:22 35.24097 139.55816 24527 ft 365 kts 233°
2026-05-04 14:22 35.22494 139.53393 25138 ft 367 kts 233°